[[{"header":{"parameterUnit":"m.s-1","parameterCategory":1,"la1":30.2991,"la2":30.254,"lo1":-89.0895,"lo2":-89.0444,"dy":0.0017,"dx":0.0017,"nx":28,"ny":28,"refTime":"2025-07-13T09:00:00:Z","depth":0,"parameterNumber":2,"parameterNumberName":"U-component_of_WINDS"},"data":[0,0,0,0,0,0,0,0,0,0,0,0,0,0,0,0,0,0,0,0,0,0,0,0,0,0,0,0,0,0,0,0,0,0,0,0,0,0,0,0,0,0,0,0,0,0,0,0,0,0,0,0,0,0,0,0,0,0,0.172,0.1721,0,0.1865,0.1866,0.1868,0.1947,0.1947,0.1947,0.1947,0.2099,0.2102,0.2106,0,0,0,0,0,0,0,0,0,0,0,0,0,0.1512,0.1516,0.1719,0.1721,0.1723,0.1864,0.1866,0.1868,0.1947,0.1947,0.1947,0.1947,0.2097,0.2102,0.2106,0,0,0,0,0,0,0,0,0,0,0,0,0,0.1624,0.1517,0.1719,0.1779,0.1786,0.1864,0.1866,0.1869,0.1947,0.1947,0.1947,0.1947,0.2096,0.2101,0.2107,0.2137,0,0,0.2125,0.2127,0,0,0,0,0,0,0,0,0.1618,0.1632,0.1769,0.1775,0.1783,0.1888,0.1849,0.1959,0.1947,0.1886,0.1947,0.1948,0.2028,0.204,0.2066,0.2144,0.2151,0.2125,0.2129,0.2131,0.2133,0,0,0,0,0,0,0,0.161,0.1626,0.1777,0.177,0.1779,0.18,0.1816,0.187,0.1954,0.1891,0.1897,0.1913,0.2032,0.2061,0.2071,0.2153,0.2125,0.213,0.2134,0.2136,0.2262,0.2262,0,0,0,0,0,0,0.1592,0.1619,0.1772,0.1781,0.1699,0.1803,0.1821,0.1854,0.1953,0.1969,0.1913,0.1916,0.2051,0.2064,0.2076,0.2117,0.2131,0.2137,0.214,0.2262,0.2262,0.2262,0,0,0,0,0,0,0.1588,0.1605,0.1767,0.1702,0.1724,0.1806,0.1842,0.1857,0.1885,0.197,0.1985,0.1926,0.2051,0.2068,0.2121,0.2124,0.2139,0.2144,0.2262,0.2262,0.2262,0.22,0,0,0,0,0,0,0.1581,0.1603,0.1615,0.1702,0.1727,0.1808,0.1843,0.1859,0.1894,0.19,0.1986,0.2001,0.2053,0.2112,0.2127,0.2132,0.2149,0.2263,0.2262,0.2262,0.2202,0.2198,0.2194,0,0,0,0,0,0.1574,0.1592,0.1615,0.1633,0.1743,0.1808,0.1823,0.1881,0.1894,0.1907,0.1961,0.1998,0.2121,0.2117,0.2134,0.2141,0.2263,0.2262,0.2262,0.2204,0.2198,0.2194,0,0,0,0,0,0,0.1505,0.1605,0.1631,0.1678,0.1734,0.1821,0.1839,0.1874,0.1928,0.1931,0.2003,0.2021,0.2067,0.211,0.2103,0.2175,0.2196,0.2199,0.2145,0.2141,0.2137,0.2126,0.2154,0,0,0,0,0,0.1495,0.1539,0.1624,0.1657,0.1684,0.1756,0.1787,0.1827,0.1888,0.1912,0.1971,0.2029,0.2081,0.2113,0.2166,0.2209,0.2228,0.2222,0.2218,0.2214,0.2216,0.2241,0.2239,0.2261,0.2261,0.2261,0,0,0.1476,0.1536,0.1559,0.1645,0.1693,0.1737,0.1776,0.1821,0.1854,0.192,0.1972,0.2017,0.2087,0.2135,0.2159,0.2171,0.2214,0.2214,0.221,0.2214,0.224,0.2238,0.2236,0.2261,0.2261,0.2261,0,0,0.1462,0.1512,0.1545,0.1592,0.1663,0.1711,0.1719,0.1801,0.1833,0.1887,0.1937,0.1978,0.2066,0.2113,0.2149,0.2152,0.2188,0.2167,0.2145,0.2169,0.2167,0.2166,0.2166,0.2166,0.2169,0.2169,0.2169,0,0.1429,0.1497,0.1558,0.16,0.1636,0.1696,0.173,0.1773,0.1858,0.1881,0.1894,0.2005,0.2056,0.2115,0.2116,0.2143,0.2154,0.2158,0.2162,0.2162,0.2161,0.2163,0.2163,0.2166,0.2166,0.2166,0.2167,0,0.1452,0.1498,0.1516,0.1595,0.1634,0.1671,0.1738,0.177,0.1807,0.1853,0.1908,0.1971,0.2037,0.2054,0.2091,0.2118,0.2124,0.2148,0.2171,0.2155,0.2158,0.2159,0.2161,0.2162,0.2163,0.2164,0,0,0.14,0.1512,0.1517,0.1553,0.1636,0.1673,0.1714,0.1777,0.1802,0.1859,0.1894,0.1967,0.199,0.203,0.2073,0.2093,0.2091,0.2116,0.2118,0.2108,0.2124,0.2104,0.2104,0.2115,0.2115,0.2116,0.2118,0,0.1397,0.1472,0.1528,0.1581,0.1623,0.1681,0.1716,0.1771,0.1815,0.1858,0.1908,0.1958,0.1985,0.2009,0.2032,0.2086,0.2095,0.2087,0.2149,0.215,0.2128,0.2105,0.2085,0.2084,0.2119,0.2119,0.212,0,0.1405,0.1458,0.1515,0.1592,0.1613,0.1643,0.1705,0.1746,0.1809,0.184,0.1884,0.1928,0.1973,0.1991,0.2054,0.2047,0.2076,0.2106,0.2108,0.2115,0.2133,0.2112,0.2085,0.2085,0.2122,0.2122,0.2122,0,0.136,0.1446,0.1491,0.152,0.1612,0.1632,0.1671,0.1735,0.1769,0.1824,0.1846,0.1906,0.1938,0.1983,0.2042,0.205,0.2099,0.2122,0.2126,0.2124,0.2133,0.2132,0.211,0.2152,0.2152,0.2152,0.2152,0,0.1351,0.1383,0.1471,0.1499,0.1537,0.1601,0.1637,0.1681,0.1737,0.1775,0.1828,0.1862,0.1938,0.1981,0.2028,0.2072,0.2087,0.2113,0.2125,0.2108,0.2105,0.2128,0.2129,0.2153,0.2153,0.2152,0.2152,0,0.1307,0.1367,0.142,0.1502,0.1524,0.1548,0.1618,0.1647,0.1695,0.1741,0.1756,0.183,0.1884,0.1947,0.2021,0.2053,0.2093,0.2111,0.2071,0.2078,0.2078,0.2076,0.207,0.2072,0.2113,0.2112,0.2112,0,0.1297,0.1323,0.1408,0.1436,0.1473,0.1519,0.1553,0.1618,0.1652,0.1725,0.1745,0.1803,0.1852,0.1935,0.1996,0.2053,0.2073,0.2066,0.2082,0.2063,0.2072,0.2069,0.2071,0.2062,0.2061,0.206,0.206,0,0.1272,0.1301,0.1348,0.1406,0.1446,0.1495,0.1546,0.1567,0.1641,0.1677,0.1732,0.177,0.1845,0.1901,0.1966,0.2007,0.2046,0.2055,0.2058,0.2041,0.2016,0.2029,0.2059,0.2054,0.2055,0.2055,0.2056,0.2056,0.1245,0.127,0.1333,0.1384,0.143,0.1476,0.1507,0.1557,0.1604,0.167,0.1705,0.1759,0.1821,0.1912,0.1952,0.1995,0.2008,0.2014,0.2015,0.2016,0.201,0.2009,0.2007,0.2007,0.2008,0.2008,0.2008,0,0.1222,0.1266,0.1312,0.1381,0.1421,0.1454,0.1512,0.1543,0.159,0.1644,0.1691,0.1754,0.1808,0.1873,0.1932,0.1954,0.1973,0.1967,0.1966,0.1975,0.1995,0.1986,0.1951,0.1951,0.1951,0.1951,0.1951,0.1951,0.1215,0.1259,0.1295,0.1362,0.1406,0.1458,0.1489,0.1532,0.1576,0.1643,0.1688,0.1729,0.1788,0.1852,0.1903,0.1921,0.194,0.1928,0.1951,0.1969,0.1973,0.1978,0.1969,0.1932,0.1932,0.1927,0.1927,0.1927]},{"header":{"parameterUnit":"m.s-1","parameterCategory":1,"la1":30.2991,"la2":30.254,"lo1":-89.0895,"lo2":-89.0444,"dy":0.0017,"dx":0.0017,"nx":28,"ny":28,"refTime":"2025-07-13T09:00:00:Z","depth":0,"parameterNumber":3,"parameterNumberName":"V-component_of_WINDS"},"data":[0,0,0,0,0,0,0,0,0,0,0,0,0,0,0,0,0,0,0,0,0,0,0,0,0,0,0,0,0,0,0,0,0,0,0,0,0,0,0,0,0,0,0,0,0,0,0,0,0,0,0,0,0,0,0,0,0,0,3.9917,3.9916,0,3.9862,3.9861,3.986,3.9857,3.9858,3.9859,3.9859,3.9795,3.9793,3.9791,0,0,0,0,0,0,0,0,0,0,0,0,0,4.0013,4.0011,3.9917,3.9916,3.9916,3.9862,3.9861,3.986,3.9857,3.9858,3.9859,3.986,3.9796,3.9793,3.979,0,0,0,0,0,0,0,0,0,0,0,0,0,3.9966,4.0011,3.9917,3.9908,3.9907,3.9862,3.9861,3.986,3.9857,3.9858,3.9859,3.986,3.9797,3.9793,3.979,3.9748,0,0,3.9779,3.9778,0,0,0,0,0,0,0,0,3.9968,3.9962,3.991,3.9908,3.9907,3.9868,3.9871,3.9822,3.9857,3.9876,3.9859,3.9861,3.9818,3.9813,3.98,3.9745,3.9743,3.9779,3.9777,3.9775,3.9774,0,0,0,0,0,0,0,3.9972,3.9964,3.9895,3.9909,3.9907,3.9904,3.9899,3.9862,3.9842,3.9874,3.9874,3.9868,3.9817,3.9803,3.9798,3.9742,3.9779,3.9776,3.9774,3.9772,3.9649,3.9648,0,0,0,0,0,0,3.9978,3.9967,3.9897,3.9893,3.9941,3.9902,3.9895,3.9879,3.9842,3.9838,3.9867,3.9868,3.9809,3.9802,3.9796,3.9744,3.9775,3.9772,3.977,3.965,3.9648,3.9647,0,0,0,0,0,0,3.998,3.9971,3.9899,3.993,3.9921,3.9899,3.9881,3.9877,3.9864,3.9837,3.9832,3.9857,3.9809,3.9801,3.9761,3.9742,3.9771,3.9767,3.9651,3.9649,3.9648,3.9641,0,0,0,0,0,0,3.9983,3.9972,3.9958,3.993,3.9919,3.9866,3.988,3.9876,3.9859,3.9859,3.9826,3.9822,3.9809,3.9766,3.9757,3.9738,3.9765,3.9653,3.965,3.9648,3.9642,3.9639,3.9636,0,0,0,0,0,3.9986,3.9957,3.9957,3.9949,3.9901,3.9865,3.9859,3.9848,3.9857,3.9841,3.9824,3.9823,3.9746,3.9762,3.9752,3.9731,3.9654,3.9651,3.9649,3.9644,3.964,3.9636,0,0,0,0,0,0,3.998,3.9953,3.9953,3.9915,3.9893,3.9865,3.9845,3.9844,3.9817,3.9818,3.9803,3.9795,3.9755,3.9739,3.9757,3.9688,3.97,3.9696,3.97,3.9696,3.9693,3.9697,3.9762,0,0,0,0,0,3.9975,3.9951,3.9927,3.9895,3.9884,3.9867,3.9851,3.9844,3.982,3.981,3.9789,3.9764,3.9734,3.9714,3.9685,3.964,3.9632,3.9621,3.9618,3.9615,3.9611,3.9585,3.9579,3.9638,3.9638,3.9638,0,0,3.9963,3.9945,3.993,3.9894,3.9876,3.9849,3.9859,3.983,3.9809,3.9804,3.9766,3.975,3.972,3.9677,3.9657,3.9662,3.9593,3.9612,3.961,3.9607,3.9582,3.9576,3.9571,3.9637,3.9637,3.9637,0,0,3.9927,3.9912,3.9884,3.9866,3.984,3.9829,3.9822,3.9794,3.9784,3.9746,3.9742,3.9715,3.9664,3.9643,3.9626,3.9582,3.9579,3.9573,3.9555,3.953,3.9525,3.9521,3.9504,3.9498,3.9568,3.9568,3.9568,0,3.9915,3.9877,3.9868,3.984,3.9823,3.9821,3.979,3.9773,3.9737,3.9725,3.9732,3.9668,3.9647,3.9599,3.9589,3.9575,3.9565,3.9576,3.9527,3.9522,3.9518,3.9502,3.9496,3.9568,3.9568,3.9568,3.9568,0,3.9862,3.9835,3.9815,3.9784,3.9764,3.9735,3.972,3.9701,3.9696,3.9683,3.9642,3.9618,3.9584,3.9572,3.9566,3.9523,3.9527,3.953,3.9542,3.9512,3.9497,3.949,3.9567,3.9567,3.9567,3.9567,0,0,3.982,3.9786,3.9779,3.9764,3.9735,3.9713,3.9682,3.9652,3.9635,3.961,3.9583,3.954,3.9544,3.9524,3.9515,3.9493,3.9459,3.9499,3.9498,3.9492,3.9407,3.9404,3.9397,3.9457,3.9456,3.9455,3.941,0,3.9781,3.973,3.9721,3.9675,3.9649,3.9647,3.962,3.9598,3.9584,3.9558,3.9543,3.9512,3.952,3.9508,3.9486,3.9468,3.9441,3.9471,3.9429,3.9428,3.9436,3.9389,3.9386,3.9344,3.9404,3.9403,3.9402,0,3.9728,3.9705,3.9657,3.9631,3.962,3.9596,3.9567,3.9543,3.9517,3.9509,3.9487,3.9481,3.9447,3.9461,3.9412,3.9433,3.9415,3.9403,3.9401,3.9396,3.9412,3.9382,3.9331,3.9324,3.9392,3.9393,3.9394,0,3.9701,3.9658,3.9623,3.9611,3.9581,3.9564,3.955,3.9526,3.9507,3.9481,3.9468,3.9437,3.9419,3.9394,3.9379,3.9391,3.9331,3.9344,3.9321,3.9321,3.9308,3.9308,3.9252,3.9298,3.9298,3.9298,3.9298,0,3.9657,3.9628,3.9611,3.959,3.9556,3.9546,3.9511,3.9497,3.9476,3.945,3.9444,3.942,3.9402,3.9374,3.9361,3.9322,3.9314,3.9305,3.9301,3.9305,3.9306,3.9292,3.9294,3.9296,3.9297,3.9297,3.9297,0,3.9622,3.961,3.9572,3.9547,3.954,3.9516,3.9493,3.9471,3.9458,3.9425,3.9417,3.9395,3.9362,3.9345,3.9302,3.9294,3.925,3.9248,3.9259,3.9258,3.9235,3.9237,3.9167,3.9157,3.9211,3.921,3.921,0,3.9594,3.9572,3.9545,3.9529,3.9515,3.9488,3.947,3.9459,3.9439,3.9408,3.9389,3.9356,3.9329,3.9276,3.9255,3.9222,3.9219,3.9197,3.9214,3.9218,3.9218,3.9219,3.9216,3.9194,3.9193,3.9193,3.9192,0,3.9546,3.9542,3.9517,3.9491,3.947,3.9447,3.9425,3.9411,3.9395,3.9374,3.9341,3.932,3.9278,3.9245,3.921,3.9193,3.9189,3.9188,3.918,3.9183,3.919,3.9185,3.925,3.9189,3.9189,3.919,3.919,3.919,3.9513,3.9493,3.9471,3.9444,3.9426,3.9406,3.9384,3.9369,3.9343,3.9309,3.9303,3.9268,3.9241,3.9195,3.9177,3.9147,3.9152,3.9141,3.9138,3.9136,3.9135,3.9195,3.9141,3.9141,3.9141,3.9141,3.9141,0,3.9464,3.945,3.9426,3.9396,3.9374,3.9375,3.935,3.9331,3.9301,3.9278,3.9252,3.9214,3.9181,3.9158,3.9124,3.9105,3.9102,3.9096,3.9097,3.9093,3.9133,3.9142,3.9099,3.9099,3.9099,3.9099,3.9099,3.9099,3.9436,3.9402,3.9395,3.9351,3.9336,3.9304,3.929,3.927,3.9251,3.9209,3.9183,3.917,3.9146,3.911,3.908,3.9073,3.906,3.9055,3.9048,3.9086,3.909,3.9094,3.9103,3.9052,3.9052,3.901,3.901,3.9009]}]]